DW3800 Weather Reports


Display with metric or nautical units.
time (UTC)temp
F
wind
direction
speed
MPH
gust
MPH
rain 1hr
in
rain 24hr
in
rain mn
in
humidity
%
barometer
mb
20260903202613 84 199 1.0 9.0 0.00 0.04 0.04 73 1012.3
20260903202109 84 102 1.0 8.0 0.00 0.04 0.04 73 1012.4
20260903201603 84 158 4.0 6.0 0.00 0.04 0.04 73 1012.6
20260903201102 84 151 3.0 11.0 0.00 0.04 0.04 73 1012.2
20260903200552 84 81 4.0 7.0 0.00 0.04 0.04 73 1012.3
20260903200047 84 153 2.0 5.0 0.00 0.04 0.04 73 1012.5
20260903195543 83 97 3.0 5.0 0.00 0.04 0.04 75 1012.5
20260903195038 82 180 5.0 7.0 0.00 0.04 0.04 76 1012.5
20260903194533 81 192 4.0 5.0 0.00 0.04 0.04 79 1012.7
20260903194028 79 100 3.0 8.0 0.00 0.04 0.04 82 1012.8
20260903193525 78 111 2.0 6.0 0.00 0.04 0.04 84 1012.6
20260903193019 77 85 0.0 2.0 0.00 0.04 0.04 86 1012.8
20260903192517 76 121 3.0 5.0 0.00 0.04 0.04 88 1012.8
20260903192016 76 116 0.0 2.0 0.00 0.04 0.04 89 1013.2
20260903191513 76 61 0.0 1.0 0.07 0.04 0.04 89 1013.5
20260903191007 76 152 0.0 3.0 0.19 0.04 0.04 87 1013.7
20260903190507 77 149 0.0 1.0 0.12 0.03 0.03 87 1013.5
20260903190001 77 131 0.0 3.0 0.00 0.01 0.01 86 1013.3
20260903185456 77 15 3.0 5.0 0.00 0.01 0.01 88 1013.1
20260903184950 77 156 0.0 2.0 0.00 0.01 0.01 88 1013.2
20260903184447 77 139 0.0 1.0 0.05 0.01 0.01 88 1013.3
20260903183942 77 140 0.0 0.0 0.00 0.00 0.00 85 1013.6
20260903183436 77 168 1.0 2.0 0.00 0.00 0.00 82 1013.6
20260903182936 78 21 1.0 1.0 0.00 0.00 0.00 81 1013.6
20260903182434 78 95 1.0 3.0 0.00 0.00 0.00 80 1013.3
20260903181930 78 128 1.0 2.0 0.00 0.00 0.00 79 1013.6
20260903181425 78 124 0.0 0.0 0.00 0.00 0.00 79 1013.4
20260903180924 78 103 1.0 1.0 0.00 0.00 0.00 78 1013.4
20260903180419 78 324 1.0 1.0 0.00 0.00 0.00 78 1013.0
20260903175919 78 156 0.0 2.0 0.00 0.00 0.00 79 1013.2
20260903175413 78 131 0.0 2.0 0.00 0.00 0.00 79 1013.4
20260903174908 78 52 0.0 7.0 0.00 0.00 0.00 79 1013.2
20260903174403 79 105 1.0 2.0 0.00 0.00 0.00 78 1013.1
20260903173903 79 132 0.0 1.0 0.00 0.00 0.00 78 1013.5
20260903173357 79 76 2.0 3.0 0.00 0.00 0.00 78 1013.5
20260903172853 77 81 2.0 5.0 0.00 0.00 0.00 81 1013.8
20260903172348 77 121 3.0 9.0 0.00 0.00 0.00 81 1014.0
20260903171843 77 117 3.0 10.0 0.00 0.00 0.00 80 1014.1
20260903171339 77 115 2.0 5.0 0.00 0.00 0.00 79 1014.1
20260903170838 78 90 0.0 5.0 0.00 0.00 0.00 79 1014.1
20260903170333 79 77 3.0 5.0 0.00 0.00 0.00 77 1014.0
20260903165831 79 93 1.0 1.0 0.00 0.00 0.00 75 1013.9
20260903165331 79 108 1.0 5.0 0.00 0.00 0.00 74 1014.0
20260903164826 79 106 1.0 3.0 0.00 0.00 0.00 73 1014.0
20260903164321 80 127 0.0 5.0 0.00 0.00 0.00 72 1013.9
20260903163820 81 131 2.0 5.0 0.00 0.00 0.00 69 1014.1
20260903163317 80 124 0.0 3.0 0.00 0.00 0.00 71 1014.0
20260903162813 79 125 1.0 6.0 0.00 0.00 0.00 73 1013.9
20260903162309 80 141 2.0 5.0 0.00 0.00 0.00 73 1013.7
20260903161805 79 107 0.0 3.0 0.00 0.00 0.00 75 1013.8
20260903161300 79 126 3.0 5.0 0.00 0.00 0.00 75 1013.9
20260903160755 80 14 6.0 9.0 0.00 0.00 0.00 74 1013.6
20260903160255 78 174 1.0 2.0 0.00 0.00 0.00 77 1013.6
20260903155753 78 99 3.0 7.0 0.00 0.00 0.00 78 1013.4
20260903155248 78 122 1.0 9.0 0.00 0.00 0.00 79 1013.5
20260903154744 77 152 1.0 6.0 0.00 0.00 0.00 80 1013.9
20260903154240 76 178 1.0 2.0 0.00 0.00 0.00 80 1014.2
20260903153735 76 135 4.0 5.0 0.00 0.00 0.00 80 1014.4
20260903153231 76 116 3.0 3.0 0.00 0.00 0.00 80 1014.0
20260903152727 77 121 2.0 3.0 0.00 0.00 0.00 79 1014.0
20260903152223 77 25 3.0 7.0 0.00 0.00 0.00 79 1013.9
20260903151722 77 73 1.0 3.0 0.00 0.00 0.00 79 1013.7
20260903151218 77 122 1.0 5.0 0.00 0.00 0.00 78 1013.9
20260903150713 77 112 0.0 3.0 0.00 0.00 0.00 79 1013.9
20260903150208 77 149 0.0 5.0 0.00 0.00 0.00 80 1014.0
20260903145708 77 98 1.0 3.0 0.00 0.00 0.00 80 1013.9
20260903145203 77 117 3.0 3.0 0.00 0.00 0.00 80 1013.8
20260903144702 77 87 3.0 5.0 0.00 0.00 0.00 79 1013.9
20260903144157 76 152 0.0 1.0 0.00 0.00 0.00 81 1013.8
20260903143653 76 109 0.0 1.0 0.00 0.00 0.00 80 1013.9
20260903143149 77 95 1.0 1.0 0.00 0.00 0.00 80 1013.8
20260903142645 77 138 3.0 5.0 0.00 0.00 0.00 79 1013.8
20260903142141 78 98 0.0 3.0 0.00 0.00 0.00 79 1013.7
20260903141636 78 75 0.0 1.0 0.00 0.00 0.00 79 1013.8
20260903141131 77 100 1.0 2.0 0.00 0.00 0.00 79 1013.8
20260903140627 76 82 0.0 5.0 0.00 0.00 0.00 81 1013.7
20260903140122 76 117 5.0 7.0 0.00 0.00 0.00 81 1014.0
20260903135619 75 89 2.0 5.0 0.00 0.00 0.00 82 1013.9
20260903135118 75 97 1.0 5.0 0.00 0.00 0.00 84 1013.8
20260903134617 75 106 2.0 3.0 0.00 0.00 0.00 83 1013.6
20260903134113 75 63 1.0 1.0 0.00 0.00 0.00 84 1014.0
20260903133611 74 131 0.0 1.0 0.00 0.00 0.00 85 1014.1
20260903133107 73 117 0.0 2.0 0.00 0.00 0.00 86 1014.0
20260903132602 73 95 1.0 3.0 0.00 0.00 0.00 87 1014.0
20260903132102 73 148 0.0 1.0 0.00 0.00 0.00 87 1013.9
20260903131556 73 176 2.0 3.0 0.00 0.00 0.00 87 1013.9
20260903131055 73 114 0.0 7.0 0.00 0.00 0.00 87 1013.7
20260903130550 73 336 1.0 3.0 0.00 0.00 0.00 87 1014.0
20260903130045 73 193 1.0 1.0 0.00 0.00 0.00 87 1013.9
20260903125543 73 109 0.0 5.0 0.00 0.00 0.00 87 1013.9
20260903125039 73 76 3.0 5.0 0.00 0.00 0.00 87 1014.0
20260903124538 73 155 1.0 2.0 0.00 0.00 0.00 87 1013.7
20260903124033 73 107 1.0 3.0 0.00 0.00 0.00 87 1013.8
20260903123532 73 133 0.0 6.0 0.00 0.00 0.00 87 1013.5
20260903123031 73 123 1.0 5.0 0.00 0.00 0.00 87 1013.7
20260903122530 73 114 0.0 3.0 0.00 0.00 0.00 88 1013.6
20260903122025 72 187 4.0 7.0 0.00 0.00 0.00 88 1013.8
20260903121520 73 187 3.0 6.0 0.00 0.00 0.00 90 1014.0
20260903121016 73 111 2.0 8.0 0.00 0.00 0.00 89 1014.5
20260903120514 74 158 3.0 9.0 0.00 0.00 0.00 87 1014.2
20260903120009 74 196 5.0 7.0 0.00 0.00 0.00 89 1014.0
20260903115507 74 132 2.0 6.0 0.00 0.00 0.00 89 1014.2
20260903115002 74 109 3.0 6.0 0.00 0.00 0.00 89 1013.9
20260903114457 73 155 4.0 6.0 0.00 0.00 0.00 90 1014.0
20260903113953 73 135 2.0 3.0 0.00 0.00 0.00 92 1013.6
20260903113448 73 235 2.0 3.0 0.00 0.00 0.00 93 1013.8
20260903112944 72 135 0.0 1.0 0.00 0.00 0.00 94 1013.8
20260903112440 72 139 0.0 2.0 0.00 0.00 0.00 95 1013.8
20260903111939 72 116 0.0 3.0 0.00 0.00 0.00 96 1013.8
20260903111433 71 127 0.0 1.0 0.00 0.00 0.00 96 1013.5
20260903110929 71 97 1.0 5.0 0.00 0.00 0.00 96 1013.8
20260903110425 71 99 0.0 0.0 0.00 0.00 0.00 96 1013.6
20260903105919 71 289 0.0 1.0 0.00 0.00 0.00 96 1014.0
20260903105415 71 128 0.0 0.0 0.00 0.00 0.00 96 1014.0
20260903104914 71 94 1.0 2.0 0.00 0.00 0.00 96 1014.3
20260903104408 71 11 1.0 2.0 0.00 0.00 0.00 95 1014.1
20260903103906 71 109 0.0 2.0 0.00 0.00 0.00 95 1014.1
20260903103401 71 103 0.0 3.0 0.00 0.00 0.00 95 1014.1
20260903102856 71 102 0.0 1.0 0.00 0.00 0.00 95 1013.8
20260903102351 71 92 0.0 1.0 0.00 0.00 0.00 95 1014.0
20260903101851 71 357 1.0 1.0 0.00 0.00 0.00 95 1013.9
20260903101346 71 95 0.0 2.0 0.00 0.00 0.00 95 1013.7
20260903100841 71 56 0.0 1.0 0.00 0.00 0.00 95 1013.7
20260903100341 71 79 1.0 1.0 0.00 0.00 0.00 95 1013.7
20260903095833 71 100 0.0 5.0 0.00 0.00 0.00 95 1013.5
20260903095332 71 102 0.0 3.0 0.00 0.00 0.00 95 1013.6
20260903094828 71 83 0.0 1.0 0.00 0.00 0.00 95 1013.6
20260903094322 71 95 0.0 0.0 0.00 0.00 0.00 94 1013.6
20260903093819 71 99 0.0 1.0 0.00 0.00 0.00 94 1013.8
20260903093313 71 354 1.0 1.0 0.00 0.00 0.00 94 1013.7
20260903092808 71 73 1.0 2.0 0.00 0.00 0.00 94 1013.5
20260903092306 71 62 0.0 1.0 0.00 0.00 0.00 94 1013.5
20260903091802 71 53 0.0 0.0 0.00 0.00 0.00 94 1013.4
20260903091255 72 72 0.0 1.0 0.00 0.00 0.00 94 1013.4
20260903090752 72 82 0.0 2.0 0.00 0.00 0.00 94 1013.5
20260903090251 72 103 0.0 1.0 0.00 0.00 0.00 93 1013.4
20260903085750 72 93 0.0 1.0 0.00 0.00 0.00 93 1013.3
20260903085249 72 306 2.0 2.0 0.00 0.00 0.00 93 1013.6
20260903084748 72 21 0.0 2.0 0.00 0.00 0.00 93 1013.5
20260903084237 72 36 1.0 2.0 0.00 0.00 0.00 93 1013.4
20260903083733 72 23 0.0 2.0 0.00 0.00 0.00 93 1013.4
20260903083227 72 96 0.0 1.0 0.00 0.00 0.00 93 1013.4
20260903082726 72 52 2.0 2.0 0.00 0.00 0.00 92 1013.6
20260903082223 72 348 1.0 1.0 0.00 0.00 0.00 92 1013.5
20260903081722 72 16 0.0 1.0 0.00 0.00 0.00 92 1013.5
20260903081218 72 75 0.0 2.0 0.00 0.00 0.00 92 1013.4
20260903080714 73 80 0.0 1.0 0.00 0.00 0.00 91 1013.4
20260903080212 73 91 0.0 1.0 0.00 0.00 0.00 91 1013.5
20260903075710 73 100 0.0 1.0 0.00 0.00 0.00 91 1013.8
20260903075206 73 76 0.0 1.0 0.00 0.00 0.00 91 1013.6
20260903074704 73 107 1.0 2.0 0.00 0.00 0.00 91 1013.7
20260903074200 73 122 0.0 0.0 0.00 0.00 0.00 90 1013.8
20260903073655 73 39 0.0 2.0 0.00 0.00 0.00 90 1013.7
20260903073150 73 10 1.0 1.0 0.00 0.00 0.00 90 1013.9
20260903072646 73 118 0.0 1.0 0.00 0.00 0.00 90 1013.9
20260903072143 73 107 0.0 3.0 0.00 0.00 0.00 90 1013.9
20260903071639 73 314 2.0 2.0 0.00 0.00 0.00 90 1014.1
20260903071134 73 116 0.0 0.0 0.00 0.00 0.00 90 1014.0
20260903070634 73 94 0.0 2.0 0.00 0.00 0.00 89 1014.0
20260903070130 73 325 1.0 2.0 0.00 0.00 0.00 89 1014.2
20260903065629 73 93 0.0 1.0 0.00 0.00 0.00 89 1014.2
20260903065124 73 305 0.0 1.0 0.00 0.00 0.00 89 1014.2
20260903064618 73 105 0.0 1.0 0.00 0.00 0.00 89 1014.0
20260903064114 73 5 2.0 2.0 0.00 0.00 0.00 89 1014.2
20260903063609 73 11 1.0 2.0 0.00 0.00 0.00 89 1014.0
20260903063104 73 89 1.0 1.0 0.00 0.00 0.00 89 1014.3
20260903062559 73 74 0.0 0.0 0.00 0.00 0.00 88 1014.1
20260903062054 74 106 0.0 1.0 0.00 0.00 0.00 88 1014.1
20260903061550 74 102 0.0 0.0 0.00 0.00 0.00 88 1014.3
20260903061049 74 92 0.0 1.0 0.00 0.00 0.00 87 1014.4
20260903060549 74 101 0.0 0.0 0.00 0.00 0.00 87 1014.2
20260903060044 74 92 0.0 1.0 0.00 0.00 0.00 87 1014.3
20260903055541 74 104 0.0 0.0 0.00 0.00 0.00 87 1014.3
20260903055040 74 38 0.0 1.0 0.00 0.00 0.00 87 1014.2
20260903054536 75 106 0.0 1.0 0.00 0.00 0.00 86 1014.1
20260903054031 75 76 0.0 1.0 0.00 0.00 0.00 86 1014.0
20260903053526 75 104 0.0 0.0 0.00 0.00 0.00 86 1014.3
20260903053023 75 66 1.0 3.0 0.00 0.00 0.00 86 1014.1
20260903052518 75 51 1.0 1.0 0.00 0.00 0.00 85 1014.1
20260903052014 75 87 0.0 1.0 0.00 0.00 0.00 85 1014.1
20260903051508 75 273 1.0 1.0 0.00 0.00 0.00 85 1014.4
20260903051004 75 43 1.0 2.0 0.00 0.00 0.00 84 1014.2
20260903050503 76 114 0.0 2.0 0.00 0.00 0.00 84 1014.3
20260903045957 76 39 1.0 2.0 0.00 0.06 0.06 84 1014.4
20260903045453 76 51 0.0 1.0 0.00 0.06 0.06 84 1014.4
20260903044949 76 68 0.0 1.0 0.00 0.06 0.06 83 1014.6
20260903044445 76 347 1.0 2.0 0.00 0.06 0.06 83 1014.4
20260903043941 76 49 1.0 2.0 0.00 0.06 0.06 83 1014.4
20260903043437 76 115 0.0 1.0 0.00 0.06 0.06 83 1014.5
20260903042935 76 108 0.0 1.0 0.00 0.06 0.06 83 1014.4
20260903042430 76 116 0.0 1.0 0.00 0.06 0.06 83 1014.4
20260903041926 76 345 1.0 2.0 0.00 0.06 0.06 83 1014.4
20260903041422 76 101 0.0 2.0 0.00 0.06 0.06 83 1014.4
20260903040918 77 110 0.0 1.0 0.00 0.06 0.06 82 1014.4
20260903040416 77 136 1.0 1.0 0.00 0.06 0.06 82 1014.5
20260903035913 77 65 0.0 2.0 0.00 0.06 0.06 81 1014.5
20260903035408 77 222 1.0 3.0 0.00 0.06 0.06 81 1014.7
20260903034903 77 122 0.0 2.0 0.00 0.06 0.06 81 1014.7
20260903034358 77 113 0.0 3.0 0.00 0.06 0.06 82 1014.7
20260903033853 77 3 2.0 3.0 0.00 0.06 0.06 82 1014.7
20260903033348 77 20 1.0 2.0 0.00 0.06 0.06 82 1014.7
20260903032848 77 125 0.0 2.0 0.00 0.06 0.06 82 1014.8
20260903032344 77 111 0.0 2.0 0.00 0.06 0.06 82 1014.8
20260903031839 77 95 0.0 2.0 0.00 0.06 0.06 82 1014.7
20260903031338 77 112 0.0 1.0 0.00 0.06 0.06 82 1014.7
20260903030834 77 80 0.0 3.0 0.00 0.06 0.06 82 1014.8
20260903030330 77 58 1.0 1.0 0.00 0.06 0.06 82 1014.7
20260903025826 77 122 0.0 2.0 0.00 0.06 0.06 81 1014.9
20260903025321 78 148 0.0 1.0 0.00 0.06 0.06 81 1014.7
20260903024821 78 90 1.0 2.0 0.00 0.06 0.06 80 1014.3
20260903024320 78 55 1.0 2.0 0.00 0.06 0.06 80 1014.6
20260903023816 78 15 0.0 1.0 0.00 0.06 0.06 80 1014.6
20260903023311 78 110 0.0 1.0 0.00 0.06 0.06 78 1014.6
20260903022806 78 126 0.0 2.0 0.00 0.06 0.06 78 1014.4
20260903022306 78 159 0.0 1.0 0.00 0.06 0.06 77 1014.5
20260903021759 78 275 0.0 1.0 0.00 0.06 0.06 77 1014.6
20260903021255 79 136 0.0 1.0 0.00 0.06 0.06 77 1014.6
20260903020754 79 257 0.0 2.0 0.00 0.06 0.06 75 1014.5
20260903020249 79 254 1.0 1.0 0.00 0.06 0.06 75 1014.5
20260903015744 78 291 1.0 1.0 0.00 0.06 0.06 76 1014.5
20260903015240 79 302 1.0 1.0 0.00 0.06 0.06 76 1014.4
20260903014735 79 333 1.0 1.0 0.00 0.06 0.06 77 1014.4
20260903014229 79 234 0.0 0.0 0.00 0.06 0.06 77 1014.2
20260903013724 79 152 0.0 0.0 0.00 0.06 0.06 76 1013.9
20260903013223 79 233 0.0 0.0 0.00 0.06 0.06 76 1014.1
20260903012722 79 208 0.0 0.0 0.00 0.06 0.06 75 1014.1
20260903012221 80 209 0.0 1.0 0.00 0.06 0.06 75 1014.1
20260903011716 80 229 0.0 0.0 0.00 0.06 0.06 74 1014.0
20260903011216 80 216 0.0 0.0 0.00 0.06 0.06 74 1013.9
20260903010712 80 215 0.0 0.0 0.00 0.06 0.06 73 1014.1
20260903010211 81 197 0.0 0.0 0.00 0.06 0.06 73 1013.8
20260903005710 81 251 0.0 0.0 0.00 0.06 0.06 72 1014.0
20260903005205 81 212 0.0 0.0 0.00 0.06 0.06 71 1013.8
20260903004701 82 106 0.0 0.0 0.00 0.06 0.06 71 1013.9
20260903004155 82 181 0.0 0.0 0.00 0.06 0.06 70 1013.9
20260903003651 83 209 0.0 0.0 0.00 0.06 0.06 68 1014.2
20260903003147 83 184 0.0 0.0 0.00 0.06 0.06 67 1013.6
20260903002642 85 178 0.0 0.0 0.00 0.06 0.06 65 1014.0
20260903002136 86 198 0.0 0.0 0.00 0.06 0.06 64 1013.8
20260903001631 86 185 0.0 0.0 0.00 0.06 0.06 62 1013.8
20260903001125 86 149 0.0 1.0 0.00 0.06 0.06 63 1013.7
20260903000621 86 165 0.0 1.0 0.00 0.06 0.06 62 1013.8
20260903000120 86 136 1.0 1.0 0.00 0.06 0.06 61 1013.8
20260902235618 86 194 0.0 1.0 0.00 0.06 0.06 60 1013.7
20260902235114 86 175 0.0 0.0 0.00 0.06 0.06 61 1013.7
20260902234608 86 162 0.0 1.0 0.00 0.06 0.06 60 1014.1
20260902234106 86 191 0.0 1.0 0.00 0.06 0.06 61 1013.9
20260902233602 86 161 2.0 2.0 0.00 0.06 0.06 61 1014.1
20260902233056 86 190 2.0 3.0 0.00 0.06 0.06 61 1014.0
20260902232555 86 117 0.0 1.0 0.00 0.06 0.06 61 1013.8
20260902232050 86 125 1.0 1.0 0.00 0.06 0.06 61 1014.0
20260902231544 86 145 1.0 2.0 0.00 0.06 0.06 61 1013.9
20260902231044 86 85 0.0 3.0 0.00 0.06 0.06 61 1013.9
20260902230539 87 140 0.0 1.0 0.00 0.06 0.06 60 1013.7
20260902230038 86 62 1.0 3.0 0.00 0.06 0.06 60 1014.0
20260902225534 87 187 0.0 1.0 0.00 0.06 0.06 59 1014.0
20260902225033 87 123 1.0 1.0 0.00 0.06 0.06 59 1014.2
20260902224532 87 106 0.0 1.0 0.00 0.06 0.06 58 1013.8
20260902224028 87 187 0.0 3.0 0.00 0.06 0.06 59 1013.9
20260902223524 87 174 1.0 3.0 0.00 0.06 0.06 59 1014.0
20260902223023 86 193 0.0 0.0 0.00 0.06 0.06 60 1014.0
20260902222522 87 186 2.0 3.0 0.00 0.06 0.06 58 1014.1
20260902222020 87 170 1.0 2.0 0.00 0.06 0.06 58 1014.3
20260902221515 87 184 1.0 3.0 0.00 0.06 0.06 58 1014.0
20260902221010 87 167 1.0 2.0 0.00 0.06 0.06 57 1014.0
20260902220505 87 173 2.0 2.0 0.00 0.06 0.06 58 1014.1
20260902220000 87 164 1.0 3.0 0.00 0.06 0.06 58 1014.1
20260902215456 86 195 0.0 1.0 0.00 0.06 0.06 58 1014.3
20260902214952 87 202 0.0 2.0 0.00 0.06 0.06 58 1014.1
20260902214450 87 175 0.0 2.0 0.00 0.06 0.06 59 1013.9
20260902213944 87 232 2.0 3.0 0.00 0.06 0.06 58 1014.3
20260902213441 87 169 1.0 3.0 0.00 0.06 0.06 59 1014.2
20260902212939 87 183 2.0 3.0 0.00 0.06 0.06 58 1014.1
20260902212436 87 167 2.0 2.0 0.00 0.06 0.06 58 1013.9
20260902211932 88 274 2.0 5.0 0.00 0.06 0.06 56 1014.3
20260902211427 88 234 1.0 3.0 0.00 0.06 0.06 57 1014.2
20260902210923 87 219 1.0 2.0 0.00 0.06 0.06 59 1014.3
20260902210423 87 358 3.0 3.0 0.00 0.06 0.06 58 1014.1
20260902205920 87 203 0.0 3.0 0.00 0.06 0.06 57 1014.3
20260902205416 87 186 0.0 1.0 0.00 0.06 0.06 59 1014.3
20260902204911 86 232 2.0 5.0 0.00 0.06 0.06 60 1014.4
20260902204410 87 64 1.0 5.0 0.00 0.06 0.06 59 1014.3
20260902203901 87 220 0.0 2.0 0.00 0.06 0.06 58 1014.2
20260902203356 87 142 0.0 2.0 0.00 0.06 0.06 58 1014.3
20260902202850 86 188 0.0 3.0 0.00 0.06 0.06 59 1014.4